Ft Lauderdale, FL

5:33 PM EDT on June 27, 2017 (GMT -0400)
Fort Lauderdale-Hollywood International

Weather History for KFLL - June, 2014

Change the Weather History Date:

Thursday, June 26, 2014

  Actual Average Record
Temperature  
Mean Temperature 84 °F 83 °F  
Max Temperature 90 °F 89 °F 94 °F (1924)
Min Temperature 77 °F 78 °F 66 °F (1937)
Degree Days  
Heating Degree Days 0 0  
Month to date heating degree days 0 0  
Since 1 June heating degree days 0 0  
Since 1 July heating degree days 81 112  
Cooling Degree Days 19 18  
Month to date cooling degree days 437 465  
Year to date cooling degree days 1972 1883  
Since 1 June cooling degree days 437 465  
Growing Degree Days 34 (Base 50)    
Moisture  
Dew Point 74 °F    
Average Humidity 78    
Maximum Humidity 88    
Minimum Humidity 68    
Precipitation  
Precipitation 0.00 in 0.35 in 3.00 in (1917)
Month to date precipitation 8.56 8.74  
Year to date precipitation 29.16 26.23  
Snow  
Snow 0.00 in - - ()
Month to date snowfall 0.0  
Since 1 June snowfall 0.0  
Since 1 July snowfall 0.0  
Snow Depth 0.00 in    
Sea Level Pressure  
Sea Level Pressure 30.06 in    
Wind  
Wind Speed 7 mph (East)    
Max Wind Speed 15 mph    
Max Gust Speed 20 mph    
Visibility 10 miles    
Events Thunderstorm    
T = Trace of Precipitation, MM = Missing Value Source: NWS Daily Summary

Daily Weather History Graph

Daily Weather History Graph

Search for Another Location

Airport or City:

Trip Planner

Search our weather history database for the weather conditions in past years. The results will help you decide how hot, cold, wet, or windy it might be!

Date:

Astronomy

Jun. 26, 2014 Rise Set
Actual Time 6:30 AM EDT 8:16 PM EDT
Civil Twilight 6:04 AM EDT 8:42 PM EDT
Nautical Twilight 5:33 AM EDT 9:13 PM EDT
Astronomical Twilight 4:59 AM EDT 9:46 PM EDT
Moon 6:00 AM EDT (6/26) 7:44 PM EDT (6/26)
Length of Visible Light 14h 38m
Length of Day
13h 45m
Waning Crescent, 0% of the Moon is Illuminated
Jun 26
Waning Crescent
Jun 27
New
Jul 5
First Quarter
Jul 12
Full
Jul 18
Last Quarter

Hourly Weather History & Observations

Time (EDT) Temp. Heat Index Dew Point Humidity Pressure Visibility Wind Dir Wind Speed Gust Speed Precip Events Conditions
12:53 AM 78.1 °F - 73.9 °F 87% 30.11 in 10.0 mi NNW 5.8 mph - N/A   Partly Cloudy
1:53 AM 77.0 °F - 73.0 °F 88% 30.10 in 10.0 mi NNW 4.6 mph - N/A   Partly Cloudy
2:53 AM 77.0 °F - 73.0 °F 88% 30.09 in 10.0 mi North 3.5 mph - N/A   Partly Cloudy
3:53 AM 77.0 °F - 73.0 °F 88% 30.07 in 10.0 mi NNW 3.5 mph - N/A   Partly Cloudy
4:53 AM 77.0 °F - 73.0 °F 88% 30.06 in 10.0 mi North 5.8 mph - N/A   Partly Cloudy
5:53 AM 77.0 °F - 73.0 °F 88% 30.06 in 10.0 mi NNW 4.6 mph - N/A   Partly Cloudy
6:53 AM 77.0 °F - 73.9 °F 90% 30.07 in 10.0 mi NNW 4.6 mph - N/A   Partly Cloudy
7:53 AM 80.1 °F 85.1 °F 75.0 °F 85% 30.08 in 10.0 mi North 4.6 mph - N/A   Scattered Clouds
8:53 AM 84.9 °F 94.1 °F 75.9 °F 74% 30.10 in 10.0 mi NNE 4.6 mph - N/A   Scattered Clouds
9:53 AM 86.0 °F 95.1 °F 75.0 °F 70% 30.10 in 10.0 mi NNE 3.5 mph - N/A   Mostly Cloudy
10:53 AM 88.0 °F 97.5 °F 75.0 °F 65% 30.10 in 10.0 mi East 9.2 mph - N/A   Mostly Cloudy
11:53 AM 88.0 °F 98.5 °F 75.9 °F 67% 30.10 in 10.0 mi East 10.4 mph - N/A   Mostly Cloudy
12:53 PM 88.0 °F 97.5 °F 75.0 °F 65% 30.09 in 10.0 mi East 10.4 mph - N/A Thunderstorm Thunderstorm
1:18 PM 89.1 °F 99.1 °F 75.0 °F 63% 30.07 in 10.0 mi East 9.2 mph - N/A   Mostly Cloudy
1:53 PM 90.0 °F 100.2 °F 75.0 °F 61% 30.07 in 10.0 mi ESE 9.2 mph 17.3 mph N/A   Mostly Cloudy
2:36 PM 89.1 °F 99.1 °F 75.0 °F 63% 30.06 in 10.0 mi ESE 12.7 mph - N/A Thunderstorm Thunderstorm
2:53 PM 88.0 °F 97.5 °F 75.0 °F 65% 30.05 in 10.0 mi East 13.8 mph - N/A Thunderstorm Thunderstorm
3:53 PM 86.0 °F 95.1 °F 75.0 °F 70% 30.03 in 10.0 mi SE 13.8 mph - N/A   Mostly Cloudy
4:53 PM 86.0 °F 95.1 °F 75.0 °F 70% 30.01 in 10.0 mi SE 13.8 mph - N/A   Mostly Cloudy
5:53 PM 86.0 °F 95.1 °F 75.0 °F 70% 30.01 in 10.0 mi SE 11.5 mph - N/A   Mostly Cloudy
6:53 PM 84.9 °F 93.3 °F 75.0 °F 72% 29.98 in 10.0 mi SE 15.0 mph - N/A   Mostly Cloudy
7:53 PM 84.0 °F 91.9 °F 75.0 °F 74% 30.01 in 10.0 mi SE 8.1 mph - N/A   Mostly Cloudy
8:53 PM 84.0 °F 91.9 °F 75.0 °F 74% 30.03 in 10.0 mi SE 6.9 mph - N/A   Mostly Cloudy
9:53 PM 84.0 °F 91.2 °F 73.9 °F 72% 30.06 in 10.0 mi SSE 5.8 mph - N/A   Partly Cloudy
10:53 PM 84.0 °F 91.2 °F 73.9 °F 72% 30.06 in 10.0 mi SSE 4.6 mph - N/A   Clear
11:53 PM 82.9 °F 89.4 °F 73.9 °F 74% 30.07 in 10.0 mi SSW 3.5 mph - N/A   Scattered Clouds